Location: Newark
(25.0000°N, 73.5000°E)
Time: 20:04:19
(UTC+00:00)

X-37B - Pass Details

Date: 21 June 2021
Orbit: 383 x 392 km, 45.0° (Epoch: 01 July)

Event Time Altitude Azimuth Distance (km) Brightness Sun altitude
Rises 14:33:11 0° 198° (SSW) 2,241 4.3 -7.7°
Reaches altitude 10° 14:35:41 10° 178° (S) 1,390 3.1 -8.2°
Maximum altitude 14:37:52 17° 133° (SE) 1,035 2.1 -8.6°
Drops below altitude 10° 14:40:03 10° 89° (E) 1,393 2.9 -9.0°
Enters shadow 14:40:27 - 84° (E) 1,511 3.1 -9.1°
